HISTORICAL SENSOR DATA

Sensor Data Report

DB LIVE
CURRENT TIME--:--:--
DEVICE NETWORK Gateway Status
13 ESP · realtime ~1s · history 60s
Weather WS-MOD-01
OFFLINE
Actuator ACT-MOD-01
OFFLINE
Mainboard L3 MB-L3-01
ONLINE
Mainboard L5 MB-L5-01
OFFLINE
Remote AC AC-REMOTE-01
OFFLINE
PZEM L3-01 PWR-L3-01
OFFLINE
PZEM L3-02 PWR-L3-02
OFFLINE
PZEM L3-03 PWR-L3-03
OFFLINE
PZEM L3-04 PWR-L3-04
OFFLINE
PZEM L5-01 PWR-L5-01
OFFLINE
PZEM L5-02 PWR-L5-02
WARNING
PZEM L5-03 PWR-L5-03
OFFLINE
PZEM L5-04 PWR-L5-04
OFFLINE
REPORT FILTER

Periode & Sensor

DATABASE HISTORY
RESET
QUICK RANGE Hari ini 7 hari 30 hari
PERIODE04 Aug 2026sampai 02 Sep 2026
TOTAL DATA40,278sensor readings
MINIMUM-0.50sesuai filter
AVERAGE56.78sesuai filter
MAXIMUM998.00sesuai filter
REPORT RESULT

Data Sensor

04/08/2026 — 02/09/2026 EXPORT CSV
NOTANGGALWAKTUDEVICECHANNELSENSORVALUEUNIT
11901 02/09/2026 14:54:42 MB-L3-01Mainboard Lantai 3 L3-AI-06 Analog Input 6 3.12 V
11902 02/09/2026 14:54:42 MB-L3-01Mainboard Lantai 3 L3-LUX-06 Illuminance / LUX 6 39.00 lux
11903 02/09/2026 14:54:42 MB-L3-01Mainboard Lantai 3 L3-AI-01 Analog Input 1 3.12 V
11904 02/09/2026 14:54:42 MB-L5-01Mainboard Lantai 5 L5-BGT-03 Black Globe Temperature 3 29.60 °C
11905 02/09/2026 14:54:42 MB-L3-01Mainboard Lantai 3 L3-HFT-01 Heat Flow Temperature 1 29.50 °C
11906 02/09/2026 14:54:42 MB-L5-01Mainboard Lantai 5 L5-LUX-03 Illuminance / LUX 3 208.20 lux
11907 02/09/2026 14:54:42 MB-L5-01Mainboard Lantai 5 L5-BGT-02 Black Globe Temperature 2 29.60 °C
11908 02/09/2026 14:54:42 MB-L5-01Mainboard Lantai 5 L5-BGT-01 Black Globe Temperature 1 29.70 °C
11909 02/09/2026 14:54:42 MB-L3-01Mainboard Lantai 3 L3-AI-02 Analog Input 2 3.12 V
11910 02/09/2026 14:54:42 MB-L3-01Mainboard Lantai 3 L3-LUX-04 Illuminance / LUX 4 123.90 lux
11911 02/09/2026 14:54:42 MB-L5-01Mainboard Lantai 5 L5-HFT-02 Heat Flow Temperature 2 30.10 °C
11912 02/09/2026 14:54:42 MB-L5-01Mainboard Lantai 5 L5-SHT-01-RH SHT20 1 Humidity 48.30 %RH
11913 02/09/2026 14:54:42 MB-L3-01Mainboard Lantai 3 L3-HFT-02 Heat Flow Temperature 2 28.90 °C
11914 02/09/2026 14:54:42 MB-L3-01Mainboard Lantai 3 L3-SHT-01-T SHT20 1 Temperature 32.10 °C
11915 02/09/2026 14:54:40 MB-L3-01Mainboard Lantai 3 L3-RAD-02 Radiation 2 1.00 W/m²
11916 02/09/2026 14:54:40 MB-L3-01Mainboard Lantai 3 L3-LUX-05 Illuminance / LUX 5 80.50 lux
11917 02/09/2026 14:54:40 MB-L5-01Mainboard Lantai 5 L5-AI-06 Analog Input 6 3.05 V
11918 02/09/2026 14:54:40 MB-L3-01Mainboard Lantai 3 L3-LUX-03 Illuminance / LUX 3 169.80 lux
11919 02/09/2026 14:54:40 MB-L5-01Mainboard Lantai 5 L5-SHT-02-RH SHT20 2 Humidity 48.30 %RH
11920 02/09/2026 14:54:40 MB-L3-01Mainboard Lantai 3 L3-AI-04 Analog Input 4 3.12 V
11921 02/09/2026 14:54:40 MB-L5-01Mainboard Lantai 5 L5-LUX-04 Illuminance / LUX 4 272.60 lux
11922 02/09/2026 14:54:40 MB-L3-01Mainboard Lantai 3 L3-BGT-02 Black Globe Temperature 2 29.80 °C
11923 02/09/2026 14:54:40 MB-L3-01Mainboard Lantai 3 L3-RAD-01 Radiation 1 2.00 W/m²
11924 02/09/2026 14:54:40 MB-L5-01Mainboard Lantai 5 L5-AI-05 Analog Input 5 3.05 V
11925 02/09/2026 14:54:40 MB-L5-01Mainboard Lantai 5 L5-SHT-03-T SHT20 3 Temperature 32.20 °C
11926 02/09/2026 14:54:40 MB-L5-01Mainboard Lantai 5 L5-SHT-01-T SHT20 1 Temperature 32.30 °C
11927 02/09/2026 14:54:40 MB-L3-01Mainboard Lantai 3 L3-SHT-03-RH SHT20 3 Humidity 48.90 %RH
11928 02/09/2026 14:54:40 MB-L5-01Mainboard Lantai 5 L5-SHT-02-T SHT20 2 Temperature 32.30 °C
11929 02/09/2026 14:54:40 MB-L5-01Mainboard Lantai 5 L5-SHT-03-RH SHT20 3 Humidity 48.90 %RH
11930 02/09/2026 14:54:40 MB-L5-01Mainboard Lantai 5 L5-AI-04 Analog Input 4 3.05 V
11931 02/09/2026 14:54:40 MB-L3-01Mainboard Lantai 3 L3-ST-01 Surface Temperature 1 29.90 °C
11932 02/09/2026 14:54:40 MB-L3-01Mainboard Lantai 3 L3-AI-05 Analog Input 5 3.12 V
11933 02/09/2026 14:54:40 MB-L3-01Mainboard Lantai 3 L3-SHT-03-T SHT20 3 Temperature 31.70 °C
11934 02/09/2026 14:54:40 MB-L5-01Mainboard Lantai 5 L5-RAD-01 Radiation 1 2.00 W/m²
11935 02/09/2026 14:54:40 MB-L5-01Mainboard Lantai 5 L5-AI-03 Analog Input 3 3.05 V
11936 02/09/2026 14:54:40 MB-L3-01Mainboard Lantai 3 L3-SHT-02-T SHT20 2 Temperature 32.10 °C
11937 02/09/2026 14:54:40 MB-L5-01Mainboard Lantai 5 L5-AI-02 Analog Input 2 3.05 V
11938 02/09/2026 14:54:40 MB-L3-01Mainboard Lantai 3 L3-BGT-03 Black Globe Temperature 3 29.20 °C
11939 02/09/2026 14:54:40 MB-L3-01Mainboard Lantai 3 L3-ST-02 Surface Temperature 2 30.00 °C
11940 02/09/2026 14:54:40 MB-L5-01Mainboard Lantai 5 L5-AI-01 Analog Input 1 3.05 V
11941 02/09/2026 14:54:40 MB-L5-01Mainboard Lantai 5 L5-LUX-05 Illuminance / LUX 5 565.70 lux
11942 02/09/2026 14:54:40 MB-L3-01Mainboard Lantai 3 L3-AI-06 Analog Input 6 3.12 V
11943 02/09/2026 14:54:40 MB-L3-01Mainboard Lantai 3 L3-LUX-06 Illuminance / LUX 6 43.90 lux
11944 02/09/2026 14:54:40 MB-L3-01Mainboard Lantai 3 L3-AI-01 Analog Input 1 3.12 V
11945 02/09/2026 14:54:40 MB-L5-01Mainboard Lantai 5 L5-BGT-03 Black Globe Temperature 3 29.70 °C
11946 02/09/2026 14:54:40 MB-L3-01Mainboard Lantai 3 L3-HFT-01 Heat Flow Temperature 1 29.50 °C
11947 02/09/2026 14:54:40 MB-L5-01Mainboard Lantai 5 L5-LUX-03 Illuminance / LUX 3 200.00 lux
11948 02/09/2026 14:54:40 MB-L5-01Mainboard Lantai 5 L5-BGT-02 Black Globe Temperature 2 29.70 °C
11949 02/09/2026 14:54:40 MB-L5-01Mainboard Lantai 5 L5-BGT-01 Black Globe Temperature 1 29.80 °C
11950 02/09/2026 14:54:40 MB-L3-01Mainboard Lantai 3 L3-AI-02 Analog Input 2 3.12 V
11951 02/09/2026 14:54:40 MB-L3-01Mainboard Lantai 3 L3-LUX-04 Illuminance / LUX 4 110.20 lux
11952 02/09/2026 14:54:40 MB-L5-01Mainboard Lantai 5 L5-HFT-02 Heat Flow Temperature 2 30.20 °C
11953 02/09/2026 14:54:40 MB-L5-01Mainboard Lantai 5 L5-SHT-01-RH SHT20 1 Humidity 48.30 %RH
11954 02/09/2026 14:54:40 MB-L3-01Mainboard Lantai 3 L3-HFT-02 Heat Flow Temperature 2 28.90 °C
11955 02/09/2026 14:54:40 MB-L3-01Mainboard Lantai 3 L3-SHT-01-T SHT20 1 Temperature 32.20 °C
11956 02/09/2026 14:54:40 MB-L5-01Mainboard Lantai 5 L5-HFT-01 Heat Flow Temperature 1 30.20 °C
11957 02/09/2026 14:54:40 MB-L5-01Mainboard Lantai 5 L5-LUX-01 Illuminance / LUX 1 252.00 lux
11958 02/09/2026 14:54:40 MB-L5-01Mainboard Lantai 5 L5-LUX-06 Illuminance / LUX 6 290.90 lux
11959 02/09/2026 14:54:40 MB-L5-01Mainboard Lantai 5 L5-ST-02 Surface Temperature 2 30.30 °C
11960 02/09/2026 14:54:40 MB-L3-01Mainboard Lantai 3 L3-LUX-02 Illuminance / LUX 2 67.10 lux
11961 02/09/2026 14:54:40 MB-L3-01Mainboard Lantai 3 L3-SHT-01-RH SHT20 1 Humidity 48.50 %RH
11962 02/09/2026 14:54:40 MB-L3-01Mainboard Lantai 3 L3-AI-03 Analog Input 3 3.12 V
11963 02/09/2026 14:54:40 MB-L5-01Mainboard Lantai 5 L5-LUX-02 Illuminance / LUX 2 158.60 lux
11964 02/09/2026 14:54:40 MB-L5-01Mainboard Lantai 5 L5-ST-01 Surface Temperature 1 30.10 °C
11965 02/09/2026 14:54:40 MB-L3-01Mainboard Lantai 3 L3-SHT-02-RH SHT20 2 Humidity 48.20 %RH
11966 02/09/2026 14:54:40 MB-L3-01Mainboard Lantai 3 L3-BGT-01 Black Globe Temperature 1 29.80 °C
11967 02/09/2026 14:54:40 MB-L5-01Mainboard Lantai 5 L5-RAD-02 Radiation 2 2.00 W/m²
11968 02/09/2026 14:54:40 MB-L3-01Mainboard Lantai 3 L3-LUX-01 Illuminance / LUX 1 42.90 lux
11969 02/09/2026 14:54:38 MB-L3-01Mainboard Lantai 3 L3-AI-05 Analog Input 5 3.12 V
11970 02/09/2026 14:54:38 MB-L3-01Mainboard Lantai 3 L3-SHT-03-T SHT20 3 Temperature 31.70 °C
11971 02/09/2026 14:54:38 MB-L5-01Mainboard Lantai 5 L5-RAD-01 Radiation 1 2.00 W/m²
11972 02/09/2026 14:54:38 MB-L5-01Mainboard Lantai 5 L5-AI-03 Analog Input 3 3.05 V
11973 02/09/2026 14:54:38 MB-L3-01Mainboard Lantai 3 L3-SHT-02-T SHT20 2 Temperature 32.10 °C
11974 02/09/2026 14:54:38 MB-L5-01Mainboard Lantai 5 L5-AI-02 Analog Input 2 3.05 V
11975 02/09/2026 14:54:38 MB-L3-01Mainboard Lantai 3 L3-BGT-03 Black Globe Temperature 3 29.30 °C
11976 02/09/2026 14:54:38 MB-L3-01Mainboard Lantai 3 L3-ST-02 Surface Temperature 2 30.10 °C
11977 02/09/2026 14:54:38 MB-L5-01Mainboard Lantai 5 L5-AI-01 Analog Input 1 3.05 V
11978 02/09/2026 14:54:38 MB-L5-01Mainboard Lantai 5 L5-LUX-05 Illuminance / LUX 5 518.60 lux
11979 02/09/2026 14:54:38 MB-L3-01Mainboard Lantai 3 L3-AI-06 Analog Input 6 3.12 V
11980 02/09/2026 14:54:38 MB-L3-01Mainboard Lantai 3 L3-LUX-06 Illuminance / LUX 6 38.50 lux
11981 02/09/2026 14:54:38 MB-L3-01Mainboard Lantai 3 L3-AI-01 Analog Input 1 3.12 V
11982 02/09/2026 14:54:38 MB-L5-01Mainboard Lantai 5 L5-BGT-03 Black Globe Temperature 3 29.80 °C
11983 02/09/2026 14:54:38 MB-L3-01Mainboard Lantai 3 L3-HFT-01 Heat Flow Temperature 1 29.50 °C
11984 02/09/2026 14:54:38 MB-L5-01Mainboard Lantai 5 L5-LUX-03 Illuminance / LUX 3 202.40 lux
11985 02/09/2026 14:54:38 MB-L5-01Mainboard Lantai 5 L5-BGT-02 Black Globe Temperature 2 29.70 °C
11986 02/09/2026 14:54:38 MB-L5-01Mainboard Lantai 5 L5-BGT-01 Black Globe Temperature 1 29.70 °C
11987 02/09/2026 14:54:38 MB-L3-01Mainboard Lantai 3 L3-AI-02 Analog Input 2 3.12 V
11988 02/09/2026 14:54:38 MB-L3-01Mainboard Lantai 3 L3-LUX-04 Illuminance / LUX 4 96.50 lux
11989 02/09/2026 14:54:38 MB-L5-01Mainboard Lantai 5 L5-HFT-02 Heat Flow Temperature 2 30.10 °C
11990 02/09/2026 14:54:38 MB-L5-01Mainboard Lantai 5 L5-SHT-01-RH SHT20 1 Humidity 48.40 %RH
11991 02/09/2026 14:54:38 MB-L3-01Mainboard Lantai 3 L3-HFT-02 Heat Flow Temperature 2 29.10 °C
11992 02/09/2026 14:54:38 MB-L3-01Mainboard Lantai 3 L3-SHT-01-T SHT20 1 Temperature 32.10 °C
11993 02/09/2026 14:54:38 MB-L5-01Mainboard Lantai 5 L5-HFT-01 Heat Flow Temperature 1 30.20 °C
11994 02/09/2026 14:54:38 MB-L5-01Mainboard Lantai 5 L5-LUX-01 Illuminance / LUX 1 276.20 lux
11995 02/09/2026 14:54:38 MB-L5-01Mainboard Lantai 5 L5-LUX-06 Illuminance / LUX 6 294.80 lux
11996 02/09/2026 14:54:38 MB-L5-01Mainboard Lantai 5 L5-ST-02 Surface Temperature 2 30.50 °C
11997 02/09/2026 14:54:38 MB-L3-01Mainboard Lantai 3 L3-LUX-02 Illuminance / LUX 2 46.50 lux
11998 02/09/2026 14:54:38 MB-L3-01Mainboard Lantai 3 L3-SHT-01-RH SHT20 1 Humidity 48.40 %RH
11999 02/09/2026 14:54:38 MB-L3-01Mainboard Lantai 3 L3-AI-03 Analog Input 3 3.12 V
12000 02/09/2026 14:54:38 MB-L5-01Mainboard Lantai 5 L5-LUX-02 Illuminance / LUX 2 184.70 lux
Menampilkan maksimal 100 data per halaman